カタログに戻る

THORAD AGENA D DEB

運用中LEO
NORAD 4951·DEBRIS·🇺🇸 United States

打ち上げ Apr 8, 1970 から Vandenberg Space Force Base

Loading…

次のパス

TLE

Source: Space-Track
1  4951U 70025GM  26221.81835741  .00000088  00000-0  17919-3 0  9999
2  4951 100.1860 219.9282 0017745 354.7663 129.8722 13.61270612790138

AllMySatでTHORAD AGENA D DEBをリアルタイム追跡

Download on the App Store